WW5AH-9 Weather Reports


time (UTC)temp
C
wind
direction
speed
KPH
gust
KPH
rain 1hr
cm
rain 24hr
cm
rain mn
cm
humidity
%
barometer
mb
20260502150241 20 79 0.0 0.0 0.00 0.00 0.00 72 1020.4
20260502130630 13 210 0.0 0.0 0.00 0.00 0.00 93 1019.8
20260502130128 13 249 0.0 1.6 0.00 0.00 0.00 93 1019.8
20260502123613 12 217 0.0 0.0 0.00 0.00 0.00 94 1019.3
20260502123109 12 212 0.0 0.0 0.00 0.00 0.00 95 1019.0
20260502122606 11 198 0.0 0.0 0.00 0.00 0.00 95 1018.9
20260502122103 10 218 0.0 0.0 0.00 0.00 0.00 94 1018.8
20260502121601 10 232 0.0 0.0 0.00 0.00 0.00 94 1018.8
20260502121058 10 224 0.0 0.0 0.00 0.00 0.00 94 1018.6
20260502120554 9 243 0.0 0.0 0.00 0.00 0.00 94 1018.6
20260502115550 9 229 0.0 0.0 0.00 0.00 0.00 94 1018.6
20260502115045 8 225 0.0 0.0 0.00 0.00 0.00 93 1018.5
20260502114542 8 225 0.0 0.0 0.00 0.00 0.00 93 1018.2
20260502114038 8 225 0.0 0.0 0.00 0.00 0.00 93 1018.3
20260502113536 8 225 0.0 0.0 0.00 0.00 0.00 93 1018.3
20260502113035 8 225 0.0 0.0 0.00 0.00 0.00 93 1018.0
20260502112532 9 226 0.0 0.0 0.00 0.00 0.00 93 1018.1
20260502112029 9 228 0.0 0.0 0.00 0.00 0.00 93 1018.1
20260502111527 10 233 0.0 0.0 0.00 0.00 0.00 92 1018.1
20260502111024 10 246 0.0 0.0 0.00 0.00 0.00 92 1018.3
20260502110521 10 258 0.0 0.0 0.00 0.00 0.00 92 1018.0
20260502110019 10 255 0.0 0.0 0.00 0.00 0.00 92 1017.7
20260502105516 10 231 0.0 0.0 0.00 0.00 0.00 92 1017.9
20260502105014 10 231 0.0 0.0 0.00 0.00 0.00 92 1017.9
20260502104510 10 231 0.0 0.0 0.00 0.00 0.00 92 1017.8
20260502104008 10 311 0.0 0.0 0.00 0.00 0.00 92 1017.9
20260502103505 10 272 0.0 0.0 0.00 0.00 0.00 91 1017.7
20260502103003 10 222 0.0 0.0 0.00 0.00 0.00 91 1017.5
20260502102459 11 224 0.0 0.0 0.00 0.00 0.00 91 1017.7
20260502101956 11 227 0.0 0.0 0.00 0.00 0.00 91 1017.5
20260502101454 11 237 0.0 0.0 0.00 0.00 0.00 91 1017.7
20260502100953 11 232 0.0 0.0 0.00 0.00 0.00 91 1017.6
20260502100451 11 231 0.0 0.0 0.00 0.00 0.00 91 1017.5
20260502091425 10 225 0.0 0.0 0.00 0.00 0.00 92 1017.3
20260502090922 10 230 0.0 0.0 0.00 0.00 0.00 92 1017.2
20260502090420 10 230 0.0 0.0 0.00 0.00 0.00 92 1017.3
20260502071314 11 221 0.0 0.0 0.00 0.00 0.00 92 1017.4
20260502070813 11 221 0.0 0.0 0.00 0.00 0.00 91 1017.5
20260502070310 11 222 0.0 0.0 0.00 0.00 0.00 91 1017.6
20260502065809 11 222 0.0 0.0 0.00 0.00 0.00 91 1017.7
20260502065306 11 221 0.0 0.0 0.00 0.00 0.00 91 1017.6
20260502064804 11 221 0.0 0.0 0.00 0.00 0.00 91 1017.8
20260502064301 11 221 0.0 0.0 0.00 0.00 0.00 91 1017.8
20260502063759 11 221 0.0 0.0 0.00 0.00 0.00 91 1017.6
20260502063257 11 221 0.0 0.0 0.00 0.00 0.00 91 1017.7
20260502062753 11 221 0.0 0.0 0.00 0.00 0.00 91 1017.6
20260502062251 11 221 0.0 0.0 0.00 0.00 0.00 90 1017.5
20260502061744 11 222 0.0 0.0 0.00 0.00 0.00 90 1017.7
20260502061242 11 204 0.0 0.0 0.00 0.00 0.00 90 1017.5
20260502060741 11 181 0.0 0.0 0.00 0.00 0.00 90 1017.6
20260502060237 11 188 0.0 0.0 0.00 0.00 0.00 90 1017.5
20260502055736 11 198 0.0 0.0 0.00 0.00 0.00 89 1017.5
20260502055233 11 198 0.0 0.0 0.00 0.00 0.00 89 1017.6
20260502054732 11 189 0.0 0.0 0.00 0.00 0.00 89 1017.5
20260502054229 11 189 0.0 0.0 0.00 0.00 0.00 89 1017.4
20260502053727 12 213 0.0 0.0 0.00 0.00 0.00 89 1017.6
20260502053224 12 213 0.0 0.0 0.00 0.00 0.00 89 1017.5
20260502052722 12 213 0.0 0.0 0.00 0.00 0.00 89 1017.6
20260502052220 12 194 0.0 0.0 0.00 0.00 0.00 89 1017.4
20260502051717 12 206 0.0 0.0 0.00 0.00 0.00 88 1017.5
20260502051216 12 206 0.0 0.0 0.00 0.00 0.00 88 1017.6
20260502050711 12 207 0.0 0.0 0.00 0.00 0.00 88 1017.4
20260502050208 12 207 0.0 0.0 0.00 0.00 0.00 87 1017.5
20260502045705 12 207 0.0 0.0 0.00 0.00 0.00 87 1017.5
20260502045202 12 207 0.0 0.0 0.00 0.00 0.00 87 1017.4
20260502044658 12 207 0.0 0.0 0.00 0.00 0.00 87 1017.4
20260502044154 12 207 0.0 0.0 0.00 0.00 0.00 87 1017.4
20260502043653 12 208 0.0 0.0 0.00 0.00 0.00 87 1017.5
20260502043150 12 207 0.0 0.0 0.00 0.00 0.00 87 1017.4
20260502042649 13 207 0.0 0.0 0.00 0.00 0.00 87 1017.4
20260502042146 13 207 0.0 0.0 0.00 0.00 0.00 87 1017.3
20260502041644 13 207 0.0 0.0 0.00 0.00 0.00 87 1017.3
20260502041141 13 206 0.0 0.0 0.00 0.00 0.00 86 1017.3
20260502040638 13 206 0.0 0.0 0.00 0.00 0.00 86 1017.0
20260502040135 13 225 0.0 0.0 0.00 0.00 0.00 86 1017.2
20260502035631 13 225 0.0 0.0 0.00 0.00 0.00 86 1017.2
20260502035128 13 225 0.0 0.0 0.00 0.00 0.00 86 1017.2
20260502034626 13 228 0.0 0.0 0.00 0.00 0.00 86 1017.2
20260502034124 13 227 0.0 0.0 0.00 0.00 0.00 86 1017.3
20260502033622 13 227 0.0 0.0 0.00 0.00 0.00 86 1017.2
20260502033119 13 227 0.0 0.0 0.00 0.00 0.00 86 1017.2
20260502032615 13 234 0.0 0.0 0.00 0.00 0.00 86 1017.2
20260502032112 13 234 0.0 0.0 0.00 0.00 0.00 85 1017.3
20260502031610 13 238 0.0 0.0 0.00 0.00 0.00 85 1017.2
20260502031108 13 230 0.0 0.0 0.00 0.00 0.00 85 1017.2
20260502030606 13 228 0.0 0.0 0.00 0.00 0.00 85 1017.1
20260502030104 13 238 0.0 0.0 0.00 0.00 0.00 85 1017.1
20260502025600 13 226 0.0 0.0 0.00 0.00 0.00 85 1017.1
20260502025059 13 235 0.0 0.0 0.00 0.00 0.00 85 1016.9
20260502024556 13 215 0.0 0.0 0.00 0.00 0.00 85 1017.2
20260502024054 13 256 0.0 0.0 0.00 0.00 0.00 85 1017.1
20260502023552 13 259 0.0 0.0 0.00 0.00 0.00 84 1017.1
20260502023049 13 257 0.0 0.0 0.00 0.00 0.00 84 1017.0
20260502022545 13 242 0.0 0.0 0.00 0.00 0.00 84 1016.9
20260502022043 13 235 0.0 0.0 0.00 0.00 0.00 84 1016.7
20260502021540 13 224 0.0 0.0 0.00 0.00 0.00 84 1016.8
20260502021037 13 228 0.0 0.0 0.00 0.00 0.00 84 1016.8
20260502020534 13 242 0.0 0.0 0.00 0.00 0.00 83 1016.4
20260502020031 14 215 0.0 0.0 0.00 0.00 0.00 83 1016.4
20260502015529 14 213 0.0 0.0 0.00 0.00 0.00 83 1016.3
20260502015025 14 229 0.0 0.0 0.00 0.00 0.00 82 1016.0
20260502014522 14 260 0.0 0.0 0.00 0.00 0.00 82 1016.2
20260502014019 14 243 0.0 0.0 0.00 0.00 0.00 82 1015.8
20260502013515 14 220 0.0 0.0 0.00 0.00 0.00 81 1016.1
20260502013011 14 220 0.0 0.0 0.00 0.00 0.00 81 1015.9
20260502012509 14 250 0.0 0.0 0.00 0.00 0.00 80 1015.7
20260502012006 14 237 0.0 0.0 0.00 0.00 0.00 80 1015.7
20260502011502 15 218 0.0 0.0 0.00 0.00 0.00 79 1015.5
20260502010959 15 218 0.0 0.0 0.00 0.00 0.00 79 1015.4
20260502010456 15 218 0.0 0.0 0.00 0.00 0.00 78 1015.3
20260502005952 15 227 0.0 0.0 0.00 0.00 0.00 78 1015.3
20260502005450 15 189 0.0 0.0 0.00 0.00 0.00 77 1015.3
20260502004948 15 198 0.0 0.0 0.00 0.00 0.00 77 1015.1
20260502004443 15 191 0.0 0.0 0.00 0.00 0.00 76 1015.3
20260502003940 15 207 0.0 0.0 0.00 0.00 0.00 75 1015.2
20260502003438 16 196 0.0 0.0 0.00 0.00 0.00 74 1015.4
20260502002934 16 207 0.0 0.0 0.00 0.00 0.00 74 1015.5
20260502002432 16 202 0.0 0.0 0.00 0.00 0.00 73 1015.4
20260502001929 16 214 0.0 0.0 0.00 0.00 0.00 72 1015.3
20260502001426 16 190 0.0 0.0 0.00 0.00 0.00 72 1015.0
20260502000924 16 183 0.0 0.0 0.00 0.00 0.00 71 1015.0
20260502000424 16 163 0.0 1.6 0.00 0.00 0.00 70 1014.8
20260501235918 17 163 0.0 0.0 0.00 0.00 0.00 69 1014.9
20260501235414 17 144 0.0 1.6 0.00 0.00 0.00 69 1014.8
20260501234909 17 155 0.0 1.6 0.00 0.00 0.00 68 1015.1
20260501234406 17 169 0.0 0.0 0.00 0.00 0.00 68 1015.2
20260501233905 17 138 0.0 4.8 0.00 0.00 0.00 68 1015.1
20260501233402 17 160 0.0 0.0 0.00 0.00 0.00 68 1015.1
20260501232857 17 163 0.0 0.0 0.00 0.00 0.00 68 1015.1
20260501232355 17 177 0.0 0.0 0.00 0.00 0.00 68 1014.6
20260501231852 17 204 0.0 0.0 0.00 0.00 0.00 66 1014.6
20260501231350 17 37 0.0 0.0 0.00 0.00 0.00 66 1014.5
20260501230848 17 190 0.0 0.0 0.00 0.00 0.00 66 1014.2
20260501230347 17 193 0.0 0.0 0.00 0.00 0.00 65 1014.5
20260501225844 18 143 1.6 4.8 0.00 0.00 0.00 63 1014.1
20260501225341 18 152 0.0 0.0 0.00 0.00 0.00 63 1014.7
20260501224837 18 85 3.2 3.2 0.00 0.00 0.00 62 1014.2
20260501224335 18 199 0.0 0.0 0.00 0.00 0.00 61 1014.1
20260501223831 18 175 0.0 0.0 0.00 0.00 0.00 62 1014.0
20260501223327 18 119 3.2 4.8 0.00 0.00 0.00 62 1013.7
20260501222823 18 173 0.0 1.6 0.00 0.00 0.00 64 1013.1
20260501222320 17 211 0.0 1.6 0.00 0.00 0.00 63 1013.3
20260501221817 17 355 0.0 1.6 0.00 0.00 0.00 62 1013.2
20260501221314 17 149 0.0 0.0 0.00 0.00 0.00 61 1013.5
20260501220812 18 66 0.0 0.0 0.00 0.00 0.00 61 1013.7
20260501220309 18 172 0.0 0.0 0.00 0.00 0.00 61 1014.0
20260501215806 18 141 0.0 0.0 0.00 0.00 0.00 60 1013.7
20260501215305 18 42 0.0 3.2 0.00 0.00 0.00 59 1013.5
20260501214756 18 82 0.0 0.0 0.00 0.00 0.00 59 1013.9
20260501214253 18 37 1.6 11.3 0.00 0.00 0.00 58 1013.9
20260501213749 18 32 3.2 4.8 0.00 0.00 0.00 58 1014.2
20260501213245 18 77 1.6 9.7 0.00 0.00 0.00 58 1014.1
20260501212742 18 218 0.0 9.7 0.00 0.00 0.00 57 1013.9
20260501212238 18 47 3.2 6.4 0.00 0.00 0.00 58 1014.1
20260501211736 18 116 0.0 14.5 0.00 0.00 0.00 57 1013.9
20260501211232 18 140 0.0 6.4 0.00 0.00 0.00 57 1014.2
20260501210729 18 60 3.2 6.4 0.00 0.00 0.00 57 1014.8
20260501210226 18 82 1.6 6.4 0.00 0.00 0.00 57 1014.7
20260501205722 18 123 4.8 12.9 0.00 0.00 0.00 57 1014.1
20260501205220 18 93 6.4 11.3 0.00 0.00 0.00 57 1013.9
20260501204717 18 81 9.7 17.7 0.00 0.00 0.00 56 1014.1
20260501204213 18 64 8.0 17.7 0.00 0.00 0.00 57 1013.7
20260501203709 18 26 0.0 4.8 0.00 0.00 0.00 59 1013.6
20260501203207 18 92 1.6 14.5 0.00 0.00 0.00 59 1013.5
20260501202704 18 57 6.4 14.5 0.00 0.00 0.00 60 1013.5
20260501202201 18 100 9.7 20.9 0.00 0.00 0.00 60 1013.3
20260501201657 18 41 4.8 12.9 0.00 0.00 0.00 60 1013.7
20260501201154 17 96 8.0 11.3 0.00 0.00 0.00 60 1014.0
20260501200651 17 24 6.4 12.9 0.00 0.00 0.00 59 1014.0
20260501200149 17 53 6.4 11.3 0.00 0.00 0.00 60 1014.1
20260501195646 17 140 3.2 11.3 0.00 0.00 0.00 61 1014.0
20260501195142 17 121 3.2 6.4 0.00 0.00 0.00 61 1014.3
20260501194638 17 66 9.7 12.9 0.00 0.00 0.00 61 1014.2
20260501194133 17 76 9.7 11.3 0.00 0.00 0.00 61 1014.2
20260501193631 17 165 3.2 6.4 0.00 0.00 0.00 65 1014.5
20260501193129 17 150 1.6 4.8 0.00 0.00 0.00 66 1014.8
20260501192626 17 184 0.0 3.2 0.00 0.00 0.00 67 1014.9
20260501192123 17 124 6.4 12.9 0.00 0.00 0.00 66 1015.0
20260501191620 17 101 3.2 11.3 0.00 0.00 0.00 67 1015.2
20260501191117 17 181 0.0 3.2 0.00 0.00 0.00 70 1015.4
20260501190614 16 70 1.6 1.6 0.00 0.00 0.00 70 1015.5
20260501190108 16 84 0.0 9.7 0.00 0.00 0.00 69 1015.8
20260501185605 16 63 3.2 4.8 0.00 0.00 0.00 70 1015.8
20260501185101 16 142 0.0 6.4 0.00 0.00 0.00 70 1015.9
20260501184557 16 2 4.8 6.4 0.00 0.00 0.00 71 1016.1
20260501184052 16 81 1.6 6.4 0.00 0.00 0.00 72 1016.4
20260501183549 16 130 3.2 9.7 0.00 0.00 0.00 74 1015.8
20260501183045 16 73 3.2 11.3 0.00 0.00 0.00 74 1016.2
20260501182543 16 27 3.2 4.8 0.00 0.00 0.00 74 1016.2
20260501182039 16 17 3.2 11.3 0.00 0.00 0.00 74 1016.1
20260501181537 16 355 1.6 4.8 0.00 0.00 0.00 75 1016.3
20260501181033 16 76 3.2 4.8 0.00 0.00 0.00 77 1016.4
20260501180532 16 74 1.6 4.8 0.00 0.00 0.00 77 1016.8
20260501180027 16 56 8.0 11.3 0.00 0.00 0.00 78 1016.7
20260501175524 16 39 4.8 4.8 0.00 0.00 0.00 80 1016.8
20260501175020 15 326 0.0 3.2 0.00 0.00 0.00 80 1016.9
20260501174518 15 182 0.0 1.6 0.00 0.00 0.00 81 1017.0
20260501174016 15 180 1.6 3.2 0.00 0.00 0.00 81 1017.1
20260501173513 15 177 0.0 0.0 0.00 0.00 0.00 82 1016.7
20260501173009 15 45 1.6 3.2 0.00 0.00 0.00 82 1016.7
20260501172505 15 94 1.6 9.7 0.00 0.00 0.00 81 1016.9
20260501172001 15 9 1.6 1.6 0.00 0.00 0.00 83 1016.8
20260501171456 15 61 1.6 3.2 0.00 0.00 0.00 83 1017.1
20260501170953 15 85 3.2 4.8 0.00 0.00 0.00 83 1017.2
20260501170449 15 78 3.2 11.3 0.00 0.00 0.00 83 1017.0
20260501165947 15 55 0.0 1.6 0.00 0.00 0.00 83 1017.1
20260501165445 15 90 0.0 4.8 0.00 0.00 0.00 83 1017.1
20260501164942 15 37 1.6 4.8 0.00 0.00 0.00 83 1017.4
20260501164440 15 146 3.2 3.2 0.00 0.00 0.00 84 1017.5
20260501163936 15 154 0.0 1.6 0.00 0.00 0.00 84 1017.7
20260501163432 15 182 1.6 4.8 0.00 0.00 0.00 84 1017.9
20260501162929 15 254 0.0 3.2 0.00 0.00 0.00 85 1017.9
20260501162426 15 65 0.0 4.8 0.00 0.00 0.00 85 1018.0
20260501161923 14 221 0.0 3.2 0.00 0.00 0.00 86 1017.7
20260501161420 14 164 1.6 4.8 0.00 0.00 0.00 86 1017.8
20260501160916 14 19 1.6 6.4 0.00 0.00 0.00 86 1017.8
20260501160413 14 87 1.6 11.3 0.00 0.00 0.00 86 1017.6
20260501155911 14 112 1.6 4.8 0.00 0.00 0.00 87 1017.4
20260501155407 14 152 0.0 9.7 0.00 0.00 0.00 88 1017.5
20260501154904 14 132 1.6 3.2 0.00 0.00 0.00 88 1017.3
20260501154401 14 40 6.4 6.4 0.00 0.00 0.00 89 1017.2
20260501153858 14 18 1.6 6.4 0.00 0.00 0.00 89 1017.2
20260501153356 14 66 1.6 4.8 0.00 0.00 0.00 90 1017.2
20260501152851 14 79 0.0 1.6 0.00 0.00 0.00 90 1017.0
20260501152349 14 116 1.6 4.8 0.00 0.00 0.00 90 1017.1
20260501151847 14 8 0.0 4.8 0.00 0.00 0.00 91 1017.2
20260501151342 14 60 1.6 4.8 0.00 0.00 0.00 92 1016.9
20260501150839 13 254 0.0 3.2 0.00 0.00 0.00 92 1017.0